STARLINK-30124, 56690

Orbit data source: Space-Track

STARLINK-30124, 56690 is a payload satellite owned by SpaceX/Seattle (US) in LEO that was launched on Fri, 19 May 2023 UTC via an FALCON 9 launch vehicle from the Air Force Eastern Test Range (AFETR). Payload-class satellites include a variety of spacecraft equipped with specific instruments for various scientific and technological missions. These include communications satellites like Starlink; space stations such as the ISS; scientific satellites like the Hubble; Earth observation satellites from companies like Planet Labs, Umbra, and HawkEye 360; GPS; miniature CubeSats for education and research; and military/defense satellites.

Loading next visibility...
Identifier
56690, 2023-067C
Orbit
LEO
Country
Flag of USUS
Related business
Manufacturer
SpaceX/Seattle
Mission
Operational Commercial Communications
Bus & Motor
STARLINK V2M, Unknown motor
Mass
730 kg wet, ~700 kg dry
Launch date (UTC)
2023-05-19 (3 years ago)
Launch vehicle
FALCON 9
Launch site
Air Force Eastern Test Range (AFETR)
Object type
Payload
Rocket body
Debris
Shape & HBR
Box + 2 Pan, 17.7 m
Radar Cross Section
33.884 m², Large (>1 m²)

Expand to show TLE details & history
Last TLE update: 2 days ago

TLE from 2 days ago
0 STARLINK-30124
1 56690U 23067C   26171.04782838 -.00011034  00000-0 -39184-3 0  9990
2 56690  43.0010  63.2660 0001059 278.0550  82.0182 15.27596419171235
Epoch: 2026-06-20T01:08Z
TLE epoch observation values (Epoch: 2026-06-20T01:08:52.372Z)
Latitude
0.00004°
Longitude
137.77977°
Altitude
482.675 km
Speed
7.626 km/s
True Right ascension
04h 13m 03s
True Declination
0° 00' 00"
Sunlit
Object was in daylight at epoch
Visualization orbit readout
Latitude
Unknown
Longitude
Unknown
Altitude
Unknown
Speed
Unknown
Apparent Right ascension
Unknown
Apparent Declination
Unknown
Sunlit
N/A
Visualization observer readout
Local Sidereal Time
21:32:23
Azimuth
Unknown
Elevation
Unknown
Doppler factor
Unknown
Orbital elements
Apogee altitude
485.672 km
Perigee altitude
484.218 km
Semi-major axis
6,863.082 km
Eccentricity
0.00011
Inclination
43.001°
RAAN
63.266°
Arg. of periapsis
278.055°
True anomaly
82.03022°
Mean anomaly
82.0182°
Eccentric anomaly
82.02421°
Mean motion
3.81737 °/min
Orbital period
94.31 mins
BSTAR
-0.00039184
Loading maneuver chart data...
Computing Atmospheric mass density...
Loading historical data...
Loading historical data...
Loading historical data...
Loading historical data...
Loading historical data...
Loading historical data...
Loading historical data...

Documentation

Showing up to 5 results
|